Theta_e
328 328 327 328 330 331 335 337 341 341 341 343 346 345 347 347 344 343 346 350 351 353 352 351 354 354 355 364 366 367 368 367
329 328 327 327 329 330 332 341 345 342 344 346 352 348 346 345 344 345 343 350 350 349 352 350 352 354 355 358 367 368 368 369
331 330 328 326 326 328 330 335 341 344 344 343 346 350 348 346 344 344 340 347 350 350 349 350 350 353 355 357 364 368 369 369
330 331 330 328 329 328 331 341 336 338 341 338 347 347 347 344 344 343 342 341 343 350 351 350 349 351 353 356 357 365 368 368
332 330 331 330 328 326 326 328 339 339 339 339 341 342 343 343 342 344 346 346 345 347 352 353 351 349 351 353 355 360 366 367
332 333 331 333 330 329 327 329 331 336 338 339 342 344 344 343 343 343 348 352 350 349 351 353 352 352 351 352 355 357 364 365
330 328 331 331 331 329 330 331 332 332 339 338 339 344 343 344 344 345 346 347 354 351 355 361 357 355 353 353 354 356 360 364
331 329 329 331 331 331 331 330 330 331 332 335 338 340 346 340 341 345 346 345 352 359 360 362 364 360 356 355 355 355 357 362
335 331 331 332 333 332 330 331 330 331 333 335 336 338 343 346 340 347 345 344 348 358 360 362 363 362 359 357 358 355 359 360
335 336 338 332 331 331 333 330 328 329 331 332 335 336 336 340 344 345 346 344 347 342 355 358 356 358 363 360 361 360 361 363
336 334 332 333 332 332 333 336 333 332 333 332 331 332 334 334 336 340 342 346 348 340 338 353 354 356 360 365 362 363 363 368
335 334 335 335 331 332 332 338 337 335 336 334 337 336 334 336 334 335 335 336 344 340 337 341 355 357 363 364 366 364 367 366
332 334 332 332 333 337 341 345 347 343 342 340 341 345 349 345 340 334 336 338 336 339 346 353 356 358 365 366 368 366 367 368
334 338 336 336 339 340 350 350 348 347 345 344 345 344 344 346 343 344 351 348 343 352 354 362 359 365 368 369 368 367 366 368
335 337 347 341 348 345 343 345 346 346 343 342 342 342 341 350 351 347 348 352 350 352 370 364 368 368 369 371 367 367 366 365
334 335 343 342 340 341 342 344 344 345 344 343 343 342 345 350 351 351 354 359 358 363 369 372 368 368 369 367 364 363 363 362
340 348 343 341 340 340 342 344 345 348 349 352 354 355 355 358 359 356 360 363 360 367 368 369 368 366 365 364 363 362 361 356
348 335 336 343 339 340 341 342 343 345 347 348 350 351 351 353 356 357 360 359 361 360 359 361 360 359 358 360 360 357 352 351
333 332 330 336 333 332 332 334 336 336 337 339 343 347 349 351 347 347 351 352 354 354 354 356 358 358 359 357 354 352 350 348
Wind_Speed
30 23 27 26 26 26 25 23 17 18 17 21 17 16 27 31 9 6 10 18 21 22 25 27 33 37 38 35 39 38 36 36
24 27 29 28 18 24 20 26 25 20 20 12 19 20 15 17 18 19 20 26 21 19 22 29 32 35 37 36 38 39 38 37
24 27 27 20 23 24 21 21 17 17 16 16 18 22 19 22 18 19 13 18 22 22 26 32 32 35 36 37 34 38 38 38
27 26 29 30 29 28 18 22 18 19 16 16 7 21 20 18 16 14 14 17 18 22 20 29 32 35 37 36 37 38 39 37
24 25 25 30 28 27 27 23 21 19 17 22 8 12 16 14 16 17 13 6 4 16 22 20 32 34 38 39 39 37 37 37
19 20 19 24 29 29 27 19 22 20 20 26 10 20 18 11 14 8 7 9 7 3 8 22 33 37 38 40 40 40 38 38
28 31 27 27 29 28 28 26 22 23 21 24 23 12 13 4 7 7 5 6 11 9 6 6 21 33 36 38 41 40 39 39
24 28 30 28 27 27 30 29 29 26 25 20 24 20 10 17 14 11 10 9 8 11 8 7 11 27 37 36 39 38 40 39
21 23 24 26 30 24 24 26 23 24 23 17 16 13 14 14 14 14 17 15 9 12 12 9 14 24 31 37 34 38 35 38
16 18 27 16 23 25 25 21 22 21 19 18 16 14 12 8 7 6 10 11 7 8 11 17 19 24 25 32 32 34 31 34
16 18 18 25 19 21 21 23 18 20 20 19 18 18 17 15 14 11 12 9 7 13 17 22 23 26 29 27 32 28 30 28
16 22 26 16 22 21 15 15 19 20 18 11 6 14 15 16 17 16 14 13 8 14 17 17 28 30 30 28 27 30 27 27
14 15 18 12 15 12 12 3 7 7 5 5 7 7 10 14 15 16 15 14 17 16 8 12 31 30 27 28 26 28 24 25
15 16 13 7 8 12 4 8 7 6 6 5 8 10 10 13 6 1 6 6 3 3 4 16 25 23 23 21 24 26 25 25
12 10 9 9 12 6 3 3 5 5 6 6 8 10 11 5 7 3 3 4 6 2 10 11 12 23 21 22 27 26 26 25
14 14 4 15 15 5 3 6 1 6 6 2 4 5 2 5 2 2 4 6 8 13 11 11 17 18 23 28 29 29 26 24
10 10 9 8 11 9 8 10 11 14 12 15 16 15 16 13 9 5 6 8 8 10 11 13 19 23 24 28 30 28 25 24
4 16 16 13 10 14 15 15 15 15 17 16 16 14 13 12 12 12 11 13 12 17 18 18 19 20 22 25 28 27 23 22
8 7 18 3 18 19 18 15 16 15 15 15 13 13 11 11 5 12 14 14 13 16 17 18 19 17 18 20 21 23 25 25
Wind_Direction
227 213 231 218 223 231 239 244 249 237 223 223 208 189 186 205 185 171 154 204 191 186 189 191 186 189 189 181 186 189 193 199
211 226 220 229 219 222 233 239 243 243 247 236 190 174 206 204 191 187 215 196 188 190 186 188 188 187 188 187 184 189 194 197
212 204 219 211 230 238 233 240 245 246 245 240 184 188 197 207 191 231 212 196 187 185 187 186 185 184 188 188 184 189 195 199
244 217 211 218 215 230 236 223 238 256 249 245 225 199 189 208 220 204 222 233 196 179 179 179 186 184 186 190 192 193 196 199
239 246 219 211 223 221 238 247 241 235 243 258 112 46 270 202 209 211 209 125 94 180 177 179 185 185 186 189 194 198 197 201
232 230 233 219 215 221 232 230 238 245 233 257 230 179 226 151 243 193 192 152 151 143 186 190 186 189 187 188 191 196 199 203
219 245 230 235 219 219 227 240 242 238 239 224 251 202 210 248 190 231 207 181 158 179 209 205 191 188 189 187 190 192 197 202
254 226 240 247 229 230 218 225 241 247 248 245 227 247 199 194 240 219 210 239 195 170 187 219 182 180 187 190 189 191 195 199
239 240 237 237 240 234 236 222 229 240 249 256 250 267 260 216 237 235 197 210 208 172 188 203 183 175 185 192 187 192 193 197
235 234 233 248 229 237 253 240 224 240 251 261 266 267 276 279 268 267 229 216 204 238 185 192 199 184 182 189 194 192 195 192
234 235 241 243 229 234 231 249 243 225 222 229 248 262 259 258 264 252 251 267 230 229 251 190 195 191 183 185 195 199 194 191
209 230 227 230 229 237 238 257 244 248 244 257 304 236 241 250 246 255 255 255 237 229 236 245 189 188 175 183 189 198 195 190
228 228 242 246 253 180 212 192 23 14 6 320 281 304 338 310 250 233 256 246 236 237 266 250 186 183 173 177 185 188 184 176
225 226 222 215 175 204 43 106 64 12 15 358 322 307 298 311 256 306 354 324 274 133 229 166 178 167 164 168 166 166 167 162
249 241 130 81 347 58 127 86 38 331 326 329 318 299 278 48 24 29 352 343 334 320 105 125 136 147 146 144 149 151 148 145
232 251 153 158 176 143 74 118 142 6 350 307 309 294 28 89 91 83 84 59 76 98 95 101 119 129 128 132 135 135 134 137
289 159 112 116 129 140 141 112 88 56 53 55 63 48 56 44 42 93 100 88 100 98 107 112 117 122 129 130 131 129 131 128
310 328 312 132 111 95 91 83 95 90 69 52 66 72 69 62 49 48 65 79 79 84 89 107 117 125 137 132 130 131 127 133
312 32 21 137 96 81 78 76 91 83 79 82 68 64 65 68 64 77 66 73 82 97 113 118 117 120 122 132 141 140 141 144